Torna al catalogo

IMECE

AttivoScienzaSSO
NORAD 56178·PAYLOAD·🇹🇷 Turkey

Lanciato Apr 15, 2023 da Vandenberg Space Force Base

Loading…

Prossimi Passaggi (prossime 24 ore)

TLE

AggiornatoSource: Space-Track

Epoca: Sep 14, 2026, 13:46 UTC

1 56178U 23054A   26257.57426853  .00000221  00000-0  49173-4 0  9996
2 56178  98.1116 161.3550 0008331 245.9034 114.1298 14.65896273183502

Traccia IMECE in tempo reale con AllMySat

Download on the App Store